FENGYUN 1C DEB, 29898

Orbit data source: Space-Track

FENGYUN 1C DEB, 29898 is space debris in SSO originally from a launch on Mon, 10 May 1999 UTC launched from the Taiyaun Space Center, China (TSC). Fengyun 1C debris stems from the Chinese weather satellite Fengyun-1C, which was intentionally destroyed by a Chinese anti-satellite missile in 2007. This event dramatically increased the amount of space debris, with thousands of trackable fragments posing hazards to satellites and human spaceflight. The Fengyun 1C debris cloud has become a focal point in discussions about space sustainability and the need for international regulations to prevent the creation of new debris.

Loading next visibility...
Identifier
29898, 1999-025GU
Orbit
SSO
Country
Flag of CNCN / PRC
Related business
Manufacturer
Unknown
Mission
Spacecraft
Bus & Motor
Unknown
Mass
Unknown
Launch date (UTC)
1999-05-10 (27 years ago)
Launch vehicle
Unknown
Launch site
Taiyaun Space Center, China (TSC)
Object type
Payload
Rocket body
Debris
Shape & HBR
Unknown shape, 0.1 m
Radar Cross Section
Medium (>0.1 m² and <1 m²)

Expand to show TLE details & history
Last TLE update: 23 hours ago

TLE from 23 hours ago
0 FENGYUN 1C DEB
1 29898U 99025GU  26174.86866968  .00004824  00000-0  27970-2 0  9993
2 29898  98.2326 145.3296 0424910  27.9273   2.0772 13.72061041958081
Epoch: 2026-06-23T20:50Z
TLE epoch observation values (Epoch: 2026-06-23T20:50:53.060Z)
Latitude
29.9015°
Longitude
-84.17212°
Altitude
682.872 km
Speed
7.676 km/s
True Right ascension
09h 22m 19s
True Declination
29° 45' 06"
Sunlit
Object was in daylight at epoch
Visualization orbit readout
Latitude
Unknown
Longitude
Unknown
Altitude
Unknown
Speed
Unknown
Apparent Right ascension
Unknown
Apparent Declination
Unknown
Sunlit
N/A
Visualization observer readout
Local Sidereal Time
06:51:49
Azimuth
Unknown
Elevation
Unknown
Doppler factor
Unknown
Orbital elements
Apogee altitude
1,302.428 km
Perigee altitude
676.322 km
Semi-major axis
7,367.512 km
Eccentricity
0.04249
Inclination
98.2326°
RAAN
145.3296°
Arg. of periapsis
27.9273°
True anomaly
2.26355°
Mean anomaly
2.0772°
Eccentric anomaly
2.16936°
Mean motion
3.43212 °/min
Orbital period
104.89 mins
BSTAR
0.002797
Loading maneuver chart data...
Computing Atmospheric mass density...

Documentation

Showing up to 5 results
|